Погода в Новокаолиновом

Россия / Челябинская область     53°05′20″N   59°55′09″E
темп.,
°C
ветер,
м/с
пор.,
м/с
влажн.,
%
обл.,
%
осадки,
мм/ч
давл.,
гПа
погр.,
м
15 мая, сб
сб1523:00+20з33360 0.0 102430
02:00+17зсз46505 0.0 102476
05:00+17сз46490 0.0 102568
08:00+21сз34405 0.0 1025188
11:00+26зсз34295 0.0 10241019
14:00+28з33215 0.0 10242312
17:00+28з23216 0.0 10232794
20:00+24ююз33335 0.0 102224
16 мая, вс
вс1623:00+19ссз41052100 0.2 1024184
02:00+19сз3342100 0.0 102325
05:00+16ссз225896 0.0 102413
08:00+21з22485 0.0 1024161
11:00+26зюз22335 0.0 1023998
14:00+29юз34255 0.0 10222695
17:00+29юз34245 0.0 10213170
20:00+25юз22385 0.0 102113
17 мая, пн
пн1723:00+19сз46525 0.0 102278
02:00+18зсз22570 0.0 102211
05:00+16з33607 0.0 102229
08:00+22з35470 0.0 1023208
11:00+27зсз44290 0.0 10221835
14:00+29з352271 0.0 10213687
17:00+27сз88315 0.0 1021652
20:00+22з612473 0.0 1020286
18 мая, вт
вт1823:00+19ссв35535 0.1 102161
02:00+19з22485 0.0 102012
05:00+16зсз455944 0.0 102158
08:00+22зсз35465 0.0 1020205
11:00+27зсз343111 0.0 10192088
14:00+29сз332419 0.0 10183221
17:00+29з23239 0.0 10163100
20:00+22ссв3547100 0.3 101773
19 мая, ср
ср1923:00+19с485067 0.3 1018132
02:00+17ссв4758100 0.6 1018108
05:00+15ссв496983 0.6 1018149
08:00+18св5860100 0.0 1020371
11:00+21всв6750100 0.0 10211135
14:00+24всв56394 0.0 10211751
17:00+24всв55340 0.0 10201836
20:00+20всв37490 0.0 1022133